Date,TemperatureHighF,TemperatureAvgF,TemperatureLowF,DewpointHighF,DewpointAvgF,DewpointLowF,HumidityHigh,HumidityAvg,HumidityLow,PressureMaxIn,PressureMinIn,WindSpeedMaxMPH,WindSpeedAvgMPH,GustSpeedMaxMPH,PrecipitationSumIn
2013-1-1,77,61,49,63,56,48,97,85,57,0.00,40.00,3,1,0,0.00
2013-1-2,80,65,52,69,60,51,97,87,65,0.00,40.00,3,1,0,0.00
2013-1-3,66,61,56,63,59,54,97,94,89,0.00,40.00,6,3,0,0.09
2013-1-4,59,54,51,58,54,50,97,96,95,0.00,40.00,6,3,0,0.03
2013-1-5,68,57,47,59,53,45,95,85,70,0.00,40.00,6,3,0,0.00
2013-1-6,78,64,57,68,60,55,93,86,70,0.00,40.00,5,2,0,0.00
2013-1-7,68,60,52,57,54,48,95,82,68,0.00,40.00,8,4,0,0.11
2013-1-8,77,68,60,71,65,57,97,92,78,0.00,40.00,5,3,0,0.03
2013-1-9,81,71,64,73,68,63,98,92,76,0.00,40.00,3,2,0,0.00
2013-1-10,81,70,64,71,66,63,98,87,59,0.00,40.00,6,2,0,0.00
2013-1-11,85,69,57,72,63,56,98,83,47,0.00,40.00,4,1,0,0.00
2013-1-12,83,68,57,71,62,57,98,83,53,0.00,40.00,4,2,0,0.00
2013-1-13,82,68,56,70,62,55,98,84,53,0.00,40.00,3,1,0,0.00
2013-1-14,82,67,57,70,62,56,97,84,55,0.00,40.00,3,1,0,0.00
2013-1-15,83,70,59,70,64,58,97,84,55,0.00,40.00,3,1,0,0.00
2013-1-16,82,67,57,70,62,57,97,85,54,0.00,40.00,4,1,0,0.00
2013-1-17,79,61,51,70,56,43,98,85,69,0.00,40.00,10,3,0,0.00
2013-1-18,65,53,41,54,46,35,85,76,66,0.00,40.00,12,6,0,0.00
2013-1-19,72,61,54,60,56,51,94,83,65,0.00,40.00,7,4,0,0.00
2013-1-20,71,62,54,60,56,51,94,82,57,0.00,40.00,6,3,0,0.00
2013-1-21,73,62,56,59,55,52,92,78,57,0.00,40.00,4,2,0,0.00
2013-1-22,62,53,42,52,41,33,89,65,34,0.00,40.00,7,2,0,0.00
2013-1-23,65,49,36,43,36,31,93,68,28,0.00,40.00,6,2,0,0.00
2013-1-24,72,54,39,52,46,37,95,77,48,0.00,40.00,8,2,0,0.00
2013-1-25,75,59,46,58,50,44,96,75,45,0.00,40.00,4,1,0,0.00
2013-1-26,74,58,42,60,52,41,96,81,58,0.00,40.00,6,2,0,0.00
2013-1-27,78,62,50,65,56,-100,96,86,58,0.00,40.00,6,2,0,0.00
2013-1-28,80,68,58,65,62,57,96,81,56,0.00,40.00,4,2,0,0.00
2013-1-29,86,70,58,71,63,57,97,80,50,0.00,40.00,4,2,0,0.00
2013-1-30,85,73,64,68,65,62,96,76,53,0.00,40.00,5,3,0,0.00
2013-1-31,71,56,47,65,38,29,81,52,31,0.00,40.00,8,4,0,0.00
2013-2-1,66,50,35,43,34,29,83,58,24,0.00,40.00,5,2,0,0.00
2013-2-2,70,54,40,47,40,32,92,63,24,0.00,40.00,5,2,0,0.00
2013-2-3,68,50,37,51,40,34,96,73,29,0.00,40.00,7,2,0,0.00
2013-2-4,68,52,36,48,40,34,95,70,32,0.00,40.00,3,1,0,0.00
2013-2-5,74,57,39,54,46,37,95,70,35,0.00,40.00,5,2,0,0.00
2013-2-6,73,64,56,64,59,52,92,84,70,0.00,40.00,5,2,0,0.00
2013-2-7,81,67,57,67,63,56,97,87,56,0.00,40.00,4,2,0,0.14
2013-2-8,75,66,56,65,60,53,97,82,56,0.00,40.00,6,4,0,0.00
2013-2-9,71,58,49,57,52,48,96,80,54,0.00,40.00,7,3,0,0.00
2013-2-10,79,62,48,61,54,47,97,78,50,0.00,40.00,5,2,0,0.00
2013-2-11,83,68,55,66,60,53,96,78,50,0.00,40.00,5,2,0,0.00
2013-2-12,84,70,59,69,63,58,96,79,52,0.00,40.00,4,2,0,0.00
2013-2-13,81,70,63,71,67,60,96,88,67,0.00,40.00,8,2,0,0.03
2013-2-14,63,58,52,62,56,51,97,93,79,0.00,40.00,6,2,0,0.14
2013-2-15,69,56,48,53,50,46,96,82,47,0.00,40.00,6,2,0,0.00
2013-2-16,66,53,46,52,43,25,96,73,43,0.00,40.00,10,4,0,0.00
2013-2-17,53,42,30,28,20,11,86,45,19,0.00,40.00,8,4,0,0.00
2013-2-18,67,46,26,46,35,23,93,70,33,0.00,40.00,5,2,0,0.00
2013-2-19,80,60,41,58,50,40,96,74,42,0.00,40.00,5,2,0,0.00
2013-2-20,72,60,49,59,51,46,92,74,51,0.00,40.00,6,3,0,0.00
2013-2-21,77,61,46,63,55,45,95,80,56,0.00,40.00,6,2,0,0.00
2013-2-22,87,72,58,70,64,57,97,80,47,0.00,40.00,5,2,0,0.00
2013-2-23,89,73,65,72,67,63,97,84,47,0.00,40.00,4,2,0,0.00
2013-2-24,73,68,61,70,65,59,96,90,80,0.00,40.00,6,2,0,0.00
2013-2-25,88,70,62,73,66,60,97,87,46,0.00,40.00,7,2,0,0.00
2013-2-26,78,70,64,72,66,58,98,89,55,0.00,40.00,5,2,0,0.46
2013-2-27,71,63,57,61,53,47,88,71,48,0.00,40.00,7,4,0,0.00
2013-2-28,74,60,48,53,48,45,93,67,41,0.00,40.00,8,4,0,0.00
2013-3-1,65,55,47,48,41,35,87,60,34,0.00,40.00,7,4,0,0.00
2013-3-2,60,50,41,39,33,27,74,53,29,0.00,40.00,12,5,0,0.00
2013-3-3,52,44,36,34,31,28,77,61,43,0.00,40.00,9,4,0,0.00
2013-3-4,65,46,29,39,30,25,93,59,26,0.00,40.00,6,2,0,0.00
2013-3-5,77,58,37,55,43,36,94,64,32,0.00,40.00,5,2,0,0.08
2013-3-6,64,58,46,60,39,28,88,52,26,0.00,40.00,10,6,0,0.00
2013-3-7,66,51,35,46,38,29,91,63,37,0.00,40.00,7,3,0,0.00
2013-3-8,73,53,36,50,41,34,96,70,24,0.00,40.00,6,2,0,0.00
2013-3-9,73,57,40,53,48,38,95,74,45,0.00,40.00,7,3,0,0.00
2013-3-10,77,62,47,60,53,45,96,75,48,0.00,40.00,7,3,0,0.00
2013-3-11,79,65,50,63,56,49,96,76,50,0.00,40.00,4,2,0,0.00
2013-3-12,76,67,58,69,62,50,95,85,72,0.00,40.00,6,3,0,0.06
2013-3-13,73,59,46,50,40,30,86,56,20,0.00,40.00,9,3,0,0.00
2013-3-14,64,52,40,40,32,-100,88,49,26,0.00,40.00,7,4,0,0.00
2013-3-15,74,52,33,49,37,28,95,64,25,0.00,40.00,6,2,0,0.00
2013-3-16,82,60,39,55,43,38,94,60,23,0.00,40.00,5,2,0,0.00
2013-3-17,81,62,42,60,49,40,94,67,29,0.00,40.00,4,2,0,0.00
2013-3-18,82,69,60,67,63,59,97,81,53,0.00,40.00,4,2,0,0.03
2013-3-19,84,72,60,65,61,56,94,73,39,0.00,40.00,7,3,0,0.00
2013-3-20,72,64,56,65,60,55,96,89,71,0.00,40.00,7,2,0,0.22
2013-3-21,69,55,43,55,42,30,96,66,24,0.00,40.00,7,3,0,0.00
2013-3-22,74,57,42,52,46,40,93,69,38,0.00,40.00,7,2,0,0.00
2013-3-23,85,67,54,73,63,51,95,87,60,0.00,40.00,7,2,0,0.03
2013-3-24,83,72,65,74,68,64,97,87,71,0.00,40.00,7,3,0,0.03
2013-3-25,69,62,54,63,43,27,93,55,22,0.00,40.00,9,5,0,0.00
2013-3-26,60,52,43,38,28,21,57,40,22,0.00,40.00,9,5,0,0.00
2013-3-27,62,48,33,39,32,29,89,57,28,0.00,40.00,6,3,0,0.00
2013-3-28,71,52,34,47,36,31,94,63,24,0.00,40.00,6,2,0,0.00
2013-3-29,74,56,37,52,38,31,95,60,20,0.00,40.00,6,2,0,0.00
2013-3-30,80,61,39,53,45,37,92,62,31,0.00,40.00,4,1,0,0.00
2013-3-31,84,67,51,58,50,-100,89,61,30,0.00,40.00,4,2,0,0.00
2013-4-1,85,70,56,66,59,52,92,69,44,0.00,40.00,7,3,0,0.00
2013-4-2,81,68,55,62,54,45,96,66,28,0.00,40.00,8,3,0,0.00
2013-4-3,83,67,54,66,61,53,96,84,50,0.00,40.00,7,2,0,0.28
2013-4-4,74,70,65,71,67,62,97,90,76,0.00,40.00,4,2,0,0.00
2013-4-5,72,64,57,68,62,54,96,92,86,0.00,40.00,7,3,0,0.08
2013-4-6,72,63,54,60,56,51,92,79,62,0.00,40.00,8,4,0,0.00
2013-4-7,81,66,55,65,58,54,96,76,44,0.00,40.00,5,2,0,0.00
2013-4-8,85,68,54,66,60,53,96,77,40,0.00,40.00,6,2,0,0.00
2013-4-9,87,72,59,70,61,55,97,73,42,0.00,40.00,5,2,0,0.00
2013-4-10,86,72,59,69,64,58,96,78,49,0.00,40.00,6,2,0,0.00
2013-4-11,91,78,69,73,70,68,97,80,49,0.00,40.00,4,2,0,0.11
2013-4-12,84,76,72,75,72,69,96,86,69,0.00,40.00,4,2,0,0.00
2013-4-13,85,72,60,69,62,56,97,73,37,0.00,40.00,5,2,0,0.00
2013-4-14,84,69,56,75,65,54,97,88,65,0.00,40.00,6,2,0,1.30
2013-4-15,89,74,63,68,66,63,97,79,48,0.00,40.00,5,2,0,0.00
2013-4-16,83,73,65,72,67,64,98,83,61,0.00,40.00,7,3,0,0.00
2013-4-17,83,73,66,71,67,64,98,82,54,0.00,40.00,7,3,0,0.00
2013-4-18,90,75,64,72,67,61,97,78,40,0.00,40.00,4,2,0,0.00
2013-4-19,92,79,71,75,71,68,94,77,49,0.00,40.00,9,2,0,0.00
2013-4-20,74,61,56,71,59,53,95,92,84,0.00,40.00,6,3,0,0.09
2013-4-21,74,67,58,70,64,56,96,90,81,0.00,40.00,7,4,0,0.00
2013-4-22,74,67,63,68,65,60,97,92,83,0.00,40.00,9,5,0,0.00
2013-4-23,77,68,58,64,59,55,94,75,49,0.00,40.00,8,4,0,0.00
2013-4-24,86,71,56,62,58,52,94,66,31,0.00,40.00,5,2,0,0.00
2013-4-25,88,72,56,67,60,54,96,69,32,0.00,40.00,5,2,0,0.00
2013-4-26,85,73,61,66,63,59,95,74,48,0.00,40.00,8,3,0,0.00
2013-4-27,82,72,62,67,62,59,96,73,44,0.00,40.00,7,3,0,0.00
2013-4-28,83,71,61,69,61,-100,96,75,49,0.00,40.00,5,2,0,0.00
2013-4-29,88,74,61,68,62,59,95,72,37,0.00,40.00,6,2,0,0.00
2013-4-30,87,70,64,72,66,61,97,87,43,0.00,40.00,6,2,0,0.14
2013-5-1,80,70,64,72,67,64,98,90,63,0.00,40.00,6,3,0,0.00
2013-5-2,69,68,67,69,67,66,98,96,94,0.00,40.00,6,3,0,1.43
2013-5-3,69,68,66,68,67,65,99,97,87,0.00,40.00,11,4,0,4.94
2013-5-4,79,72,67,71,69,65,97,88,72,0.00,40.00,7,3,0,0.11
2013-5-5,77,68,60,68,56,46,97,69,33,0.00,40.00,9,4,0,0.03
2013-5-6,77,65,57,58,52,47,96,67,38,0.00,40.00,8,3,0,0.00
2013-5-7,78,64,49,58,54,47,95,71,46,0.00,40.00,7,2,0,0.00
2013-5-8,81,68,55,63,58,54,96,72,47,0.00,40.00,6,3,0,0.00
2013-5-9,85,71,56,67,59,53,96,70,34,0.00,40.00,5,2,0,0.00
2013-5-10,93,73,58,72,61,-100,96,73,35,0.00,40.00,5,2,0,0.00
2013-5-11,89,76,66,73,69,65,97,79,52,0.00,40.00,10,2,0,0.00
2013-5-12,88,75,65,69,65,-100,96,74,49,0.00,40.00,7,3,0,0.00
2013-5-13,81,71,56,67,55,43,91,61,30,0.00,40.00,7,3,0,0.00
2013-5-14,82,66,49,55,51,46,95,63,31,0.00,40.00,6,2,0,0.00
2013-5-15,86,69,52,65,54,49,96,66,30,0.00,40.00,5,2,0,0.00
2013-5-16,85,65,57,67,39,-100,96,70,38,0.00,40.00,5,2,0,0.00
2013-5-17,90,73,59,68,57,-100,96,73,39,0.00,40.00,5,2,0,0.00
2013-5-18,89,76,63,72,66,61,96,75,39,0.00,40.00,6,2,0,0.00
2013-5-19,87,77,71,74,71,68,97,83,60,0.00,40.00,5,2,0,0.08
2013-5-20,88,74,68,74,69,66,97,87,51,0.00,40.00,6,2,0,0.52
2013-5-21,80,71,67,74,70,66,98,95,75,0.00,40.00,7,1,0,0.98
2013-5-22,83,74,67,76,70,67,98,88,67,0.00,40.00,7,2,0,0.00
2013-5-23,91,76,66,74,69,66,98,83,48,0.00,40.00,7,2,0,0.00
2013-5-24,90,78,66,74,67,62,98,74,38,0.00,40.00,7,3,0,0.00
2013-5-25,83,73,62,67,61,56,97,70,40,0.00,40.00,7,3,0,0.00
2013-5-26,84,70,56,67,58,54,96,69,40,0.00,40.00,6,2,0,0.00
2013-5-27,84,72,59,68,61,58,97,73,45,0.00,40.00,6,2,0,0.00
2013-5-28,85,74,62,70,66,61,96,78,57,0.00,40.00,6,3,0,0.00
2013-5-29,88,78,68,74,70,67,97,80,56,0.00,40.00,6,3,0,0.00
2013-5-30,86,78,70,74,71,69,97,79,58,0.00,40.00,7,3,0,0.00
2013-5-31,84,76,68,74,71,67,96,82,64,0.00,40.00,6,3,0,0.08
2013-6-1,84,76,69,76,72,68,97,88,71,0.00,40.00,6,3,0,0.00
2013-6-2,89,78,71,79,73,-100,97,89,67,0.00,40.00,5,2,0,0.00
2013-6-3,90,79,71,78,74,71,98,84,60,0.00,40.00,5,1,0,0.08
2013-6-4,87,76,72,76,73,71,98,90,66,0.00,40.00,6,2,0,2.10
2013-6-5,86,74,70,77,70,-100,98,93,73,0.00,40.00,5,2,0,0.52
2013-6-6,80,75,72,78,73,71,98,95,83,0.00,40.00,5,3,0,0.81
2013-6-7,90,80,71,76,73,70,97,80,56,0.00,40.00,6,2,0,0.00
2013-6-8,90,77,71,77,72,70,97,87,59,0.00,40.00,3,1,0,0.14
2013-6-9,88,77,69,78,74,69,98,90,67,0.00,40.00,5,2,0,0.00
2013-6-10,93,81,72,78,74,71,98,80,48,0.00,40.00,3,1,0,0.00
2013-6-11,90,78,72,79,74,70,97,87,64,0.00,40.00,6,1,0,0.00
2013-6-12,95,82,71,78,73,70,98,77,45,0.00,40.00,4,2,0,0.00
2013-6-13,95,83,73,78,73,68,97,74,42,0.00,40.00,5,2,0,0.00
2013-6-14,92,81,74,77,74,71,97,80,55,0.00,40.00,7,2,0,0.00
2013-6-15,85,78,73,75,72,69,97,82,65,0.00,40.00,7,3,0,0.94
2013-6-16,87,79,76,77,72,-100,90,82,69,0.00,40.00,6,2,0,0.00
2013-6-17,92,80,75,81,76,73,97,88,61,0.00,40.00,3,2,0,0.17
2013-6-18,94,82,72,78,74,71,98,79,53,0.00,40.00,4,2,0,0.00
2013-6-19,90,81,73,80,75,71,97,83,62,0.00,40.00,5,1,0,0.14
2013-6-20,92,80,72,79,74,71,97,82,50,0.00,40.00,5,2,0,0.00
2013-6-22,86,78,75,77,74,73,96,87,73,0.00,40.00,4,2,0,0.00
2013-6-23,90,78,70,77,74,70,98,87,53,0.00,40.00,5,1,0,0.00
2013-6-24,90,82,72,78,74,72,98,80,58,0.00,40.00,5,2,0,0.00
2013-6-25,92,81,72,77,73,66,97,78,42,0.00,40.00,4,2,0,0.00
2013-6-26,93,80,72,78,74,71,97,83,49,0.00,40.00,5,2,0,0.30
2013-6-27,89,78,70,79,74,69,98,88,64,0.00,40.00,3,1,0,0.00
2013-6-28,91,79,74,79,75,72,98,90,64,0.00,40.00,4,1,0,0.00
2013-6-29,89,76,74,79,71,-100,98,90,68,0.00,40.00,5,2,0,0.36
2013-6-30,89,78,73,79,74,72,97,89,68,0.00,40.00,5,2,0,0.00
2013-7-1,87,78,72,77,74,71,97,88,71,0.00,40.00,3,2,0,0.03
2013-7-2,86,75,72,81,74,72,98,96,83,0.00,40.00,4,1,0,0.08
2013-7-3,86,79,72,80,75,71,98,89,75,0.00,40.00,5,2,0,0.00
2013-7-4,91,78,72,78,74,70,98,86,56,0.00,40.00,5,2,0,0.14
2013-7-5,90,80,71,80,74,70,98,84,59,0.00,40.00,6,2,0,0.00
2013-7-6,90,79,73,79,74,72,97,86,62,0.00,40.00,5,2,0,0.03
2013-7-7,90,80,73,77,74,72,97,82,56,0.00,40.00,6,2,0,0.00
2013-7-8,90,79,73,77,72,-100,97,82,55,0.00,40.00,6,2,0,0.00
2013-7-9,90,80,71,77,70,-100,98,78,49,0.00,40.00,5,2,0,0.00
2013-7-10,91,78,71,79,70,-100,97,79,54,0.00,40.00,4,2,0,0.00
2013-7-11,93,80,71,76,73,70,97,83,50,0.00,40.00,4,1,0,0.00
2013-7-12,85,76,72,79,74,72,98,94,72,0.00,40.00,4,1,0,0.03
2013-7-13,92,78,71,78,73,71,98,88,56,0.00,40.00,6,1,0,0.14
2013-7-14,88,76,71,78,74,70,99,91,69,0.00,40.00,6,2,0,0.00
2013-7-15,85,78,70,78,74,69,98,87,71,0.00,40.00,6,3,0,0.00
2013-7-16,88,80,72,77,74,71,97,83,64,0.00,40.00,6,3,0,0.00
2013-7-17,89,80,73,78,74,72,97,83,63,0.00,40.00,7,3,0,0.00
2013-7-18,89,78,73,77,73,71,98,85,58,0.00,40.00,4,2,0,0.00
2013-7-19,89,76,72,77,73,71,97,92,64,0.00,40.00,7,1,0,0.94
2013-7-20,87,75,72,80,72,-100,98,93,76,0.00,40.00,4,1,0,0.11
2013-7-21,89,76,71,80,74,71,99,93,71,0.00,40.00,3,1,0,0.00
2013-7-22,91,77,73,80,76,72,98,94,69,0.00,40.00,2,1,0,0.11
2013-7-23,86,76,72,79,74,71,99,95,76,0.00,40.00,6,2,0,0.34
2013-7-24,85,79,74,79,76,73,98,91,79,0.00,40.00,7,2,0,0.03
2013-7-25,87,78,74,77,73,-100,98,87,69,0.00,40.00,6,2,0,0.00
2013-7-26,92,81,72,79,75,72,98,83,59,0.00,40.00,6,2,0,0.00
2013-7-27,91,79,73,79,75,72,98,88,60,0.00,40.00,6,2,0,0.00
2013-7-28,87,76,71,78,74,70,98,92,69,0.00,40.00,3,1,0,0.08
2013-7-29,91,81,70,79,74,70,99,81,56,0.00,40.00,4,2,0,0.00
2013-7-30,92,81,73,80,75,72,98,84,53,0.00,40.00,5,1,0,0.00
2013-7-31,95,81,71,79,75,69,98,83,49,0.00,40.00,4,1,0,1.38
2013-8-1,92,76,71,78,73,70,98,90,59,0.00,40.00,4,1,0,0.00
2013-8-2,91,80,71,78,73,71,98,81,51,0.00,40.00,5,2,0,0.00
2013-8-3,91,80,72,78,75,72,98,85,58,0.00,40.00,6,2,0,0.00
2013-8-4,91,79,74,81,76,73,98,90,67,0.00,40.00,5,2,0,0.00
2013-8-5,95,80,74,80,76,73,98,88,57,0.00,40.00,6,2,0,0.03
2013-8-6,91,80,73,80,76,72,99,87,66,0.00,40.00,4,2,0,0.00
2013-8-7,88,80,74,80,76,74,98,91,69,0.00,40.00,4,2,0,0.00
2013-8-8,92,81,75,80,76,74,98,86,59,0.00,40.00,3,2,0,0.00
2013-8-9,90,80,74,79,76,73,98,87,64,0.00,40.00,5,2,0,0.00
2013-8-10,93,80,73,80,76,72,98,87,60,0.00,40.00,5,2,0,0.00
2013-8-11,94,82,73,80,75,72,98,81,48,0.00,40.00,5,1,0,0.00
2013-8-12,93,82,73,79,76,73,98,82,59,0.00,40.00,4,2,0,0.00
2013-8-13,94,81,74,79,73,-100,97,80,58,0.00,40.00,4,1,0,0.00
2013-8-14,94,77,72,80,68,-100,98,84,54,0.00,40.00,5,1,0,0.00
2013-8-15,94,71,73,80,52,-100,99,77,54,0.00,40.00,4,1,0,0.00
2013-8-16,90,76,74,80,69,-100,98,89,69,0.00,40.00,4,1,0,0.76
2013-8-19,90,72,74,81,54,-100,98,89,66,0.00,40.00,5,2,0,0.03
2013-8-20,92,79,73,80,72,-100,98,85,59,0.00,40.00,5,2,0,0.00
2013-8-21,86,78,75,78,76,74,98,94,74,0.00,40.00,7,2,0,0.25
2013-8-22,87,79,75,80,77,74,98,94,79,0.00,40.00,3,1,0,0.00
2013-8-23,87,76,72,80,75,71,99,96,75,0.00,40.00,4,2,0,0.06
2013-8-24,86,77,71,80,75,71,99,93,73,0.00,40.00,8,2,0,0.00
2013-8-25,86,77,74,77,70,-100,98,86,69,0.00,40.00,4,2,0,0.00
2013-8-26,86,80,74,78,76,73,97,86,72,0.00,40.00,7,4,0,0.03
2013-8-27,87,78,72,76,73,70,98,86,56,0.00,40.00,5,2,0,0.00
2013-8-28,90,84,72,71,70,69,90,64,50,0.00,40.00,5,2,0,0.00
2013-8-29,93,80,69,76,72,68,98,77,48,0.00,40.00,5,2,0,0.00
2013-8-30,95,82,73,79,74,71,98,78,48,0.00,40.00,4,2,0,0.00
2013-8-31,91,80,72,79,74,69,97,83,61,0.00,40.00,7,2,0,0.00
2013-9-1,94,79,71,77,70,-100,98,79,48,0.00,40.00,4,2,0,0.00
2013-9-2,95,87,76,77,74,72,91,67,49,0.00,40.00,4,2,0,0.00
2013-9-3,91,79,73,77,75,72,98,87,62,0.00,40.00,5,1,0,0.00
2013-9-4,93,79,73,79,75,72,98,87,57,0.00,40.00,4,1,0,0.00
2013-9-5,93,80,70,79,74,70,98,84,56,0.00,40.00,4,1,0,0.00
2013-9-6,92,78,73,79,75,71,98,89,64,0.00,40.00,7,1,0,0.54
2013-9-7,88,79,70,77,73,69,98,83,64,0.00,40.00,6,2,0,0.00
2013-9-8,88,77,69,76,69,-100,98,81,56,0.00,40.00,7,3,0,0.00
2013-9-9,89,77,65,75,69,65,98,80,54,0.00,40.00,5,2,0,0.00
2013-9-10,88,77,69,76,71,68,98,83,52,0.00,40.00,7,3,0,0.00
2013-9-11,89,80,72,76,73,71,96,82,57,0.00,40.00,6,3,0,0.00
2013-9-12,86,79,73,76,74,71,96,87,70,0.00,40.00,2,1,0,0.00
2013-9-13,93,84,72,77,73,69,96,71,46,0.00,40.00,4,2,0,0.00
2013-9-14,90,80,72,77,74,71,98,81,56,0.00,40.00,3,1,0,0.00
2013-9-15,91,78,73,80,72,-100,98,86,57,0.00,40.00,6,2,0,0.00
2013-9-16,91,80,72,78,73,71,97,81,53,0.00,40.00,6,2,0,0.00
2013-9-17,87,79,71,78,74,70,98,85,64,0.00,40.00,7,3,0,0.08
2013-9-18,75,74,73,74,73,72,96,95,92,0.00,40.00,2,2,0,0.00
2013-9-19,88,77,70,75,73,69,97,86,60,0.00,40.00,7,2,0,0.00
2013-9-20,86,76,67,73,70,66,98,83,57,0.00,40.00,5,2,0,0.00
2013-9-21,92,77,66,74,69,66,98,80,47,0.00,40.00,4,1,0,0.00
2013-9-22,91,76,72,78,72,-100,97,89,64,0.00,40.00,4,2,0,0.03
2013-9-23,82,76,73,79,75,72,98,96,87,0.00,40.00,3,1,0,0.06
2013-9-24,86,76,71,78,74,70,98,94,75,0.00,40.00,2,1,0,0.38
2013-9-25,83,76,72,76,74,71,99,93,74,0.00,40.00,6,2,0,0.44
2013-9-26,88,78,71,78,74,69,99,88,60,0.00,40.00,7,3,0,0.00
2013-9-27,85,75,69,74,71,68,97,88,61,0.00,40.00,8,4,0,0.00
2013-9-28,79,73,71,75,72,69,98,93,82,0.00,40.00,8,3,0,0.52
2013-9-29,85,74,67,74,68,-100,98,84,63,0.00,40.00,8,3,0,0.00
2013-9-30,86,75,67,74,69,67,98,85,56,0.00,40.00,6,2,0,0.00
2013-10-1,72,70,69,69,68,66,93,91,85,0.00,40.00,1,1,0,0.00
2013-10-2,85,74,66,71,67,65,96,80,53,0.00,40.00,6,3,0,0.00
2013-10-3,88,76,66,74,70,65,98,83,57,0.00,40.00,4,2,0,0.00
2013-10-4,89,77,67,76,71,67,98,84,55,0.00,40.00,5,2,0,0.00
2013-10-5,87,76,67,76,71,67,98,85,63,0.00,40.00,5,2,0,0.00
2013-10-6,92,77,70,78,72,69,98,87,50,0.00,40.00,5,1,0,0.03
2013-10-7,85,75,70,78,73,70,98,93,76,0.00,40.00,4,1,0,0.03
2013-10-8,79,74,71,76,73,70,98,95,89,0.00,40.00,7,3,0,0.85
2013-10-9,72,69,66,70,67,65,97,92,84,0.00,40.00,6,4,0,0.00
2013-10-10,83,71,62,68,65,60,97,81,46,0.00,40.00,5,2,0,0.00
2013-10-11,84,68,60,72,64,60,98,87,48,0.00,40.00,4,1,0,0.00
2013-10-12,85,71,61,71,63,59,98,79,43,0.00,40.00,5,2,0,0.00
2013-10-13,85,71,61,72,62,-100,98,77,43,0.00,40.00,5,2,0,0.00
2013-10-14,83,72,65,70,68,64,97,85,61,0.00,40.00,8,4,0,0.00
2013-10-15,80,72,67,74,70,66,97,92,81,0.00,40.00,7,3,0,0.03
2013-10-16,86,75,68,74,71,68,98,88,63,0.00,40.00,5,2,0,0.00
2013-10-17,86,75,66,74,69,65,98,85,55,0.00,40.00,4,1,0,0.00
2013-10-18,91,76,66,76,70,66,98,84,51,0.00,40.00,4,1,0,0.00
2013-10-19,90,77,68,77,72,68,98,87,57,0.00,40.00,6,1,0,0.00
2013-10-20,82,74,70,73,70,-100,97,87,70,0.00,40.00,7,3,0,0.00
2013-10-21,85,76,69,77,73,67,98,91,75,0.00,40.00,5,2,0,0.44
2013-10-22,90,77,71,77,73,69,99,87,53,0.00,40.00,4,2,0,0.00
2013-10-23,77,71,59,72,64,52,97,79,45,0.00,40.00,6,3,0,0.00
2013-10-25,77,63,50,59,54,49,99,76,44,0.00,40.00,5,2,0,0.00
2013-10-26,75,62,52,56,53,47,96,74,40,0.00,40.00,6,2,0,0.00
2013-10-27,76,60,49,55,49,-100,98,75,37,0.00,40.00,5,2,0,0.00
2013-10-28,83,64,52,64,55,-100,98,82,43,0.00,40.00,6,2,0,0.00
2013-10-29,80,69,62,67,63,61,97,82,57,0.00,40.00,7,4,0,0.00
2013-10-30,83,71,61,69,66,60,98,84,59,0.00,40.00,5,2,0,0.00
2013-10-31,86,73,64,70,66,64,99,83,51,0.00,40.00,3,1,0,0.00
2013-11-1,88,75,68,72,68,66,98,82,47,0.00,40.00,4,2,0,0.00
2013-11-2,73,66,58,72,65,58,98,95,91,0.00,40.00,5,2,0,0.14
2013-11-6,75,68,62,71,67,62,99,96,87,0.00,40.00,5,2,0,0.06
2013-11-7,78,70,64,70,68,64,99,93,75,0.00,40.00,4,2,0,0.00
2013-11-8,72,65,58,67,60,50,99,83,73,0.00,40.00,9,4,0,0.00
2013-11-9,77,64,55,64,56,-100,98,80,59,0.00,40.00,6,2,0,0.00
2013-11-10,77,67,58,68,64,57,99,90,70,0.00,40.00,6,3,0,0.00
2013-11-11,79,68,59,67,63,58,98,86,63,0.00,40.00,6,3,0,0.00
2013-11-12,77,67,62,67,64,57,99,88,68,0.00,40.00,5,2,0,0.00
2013-11-13,64,57,51,56,48,45,87,73,60,0.00,40.00,12,8,0,0.00
2013-11-14,73,59,48,56,52,47,97,81,50,0.00,40.00,5,2,0,0.00
2013-11-15,68,62,55,66,61,54,98,95,89,0.00,40.00,3,2,0,0.15
2013-11-16,74,66,63,70,64,-100,99,94,85,0.00,40.00,5,2,0,0.09
2013-12-12,66,57,47,57,44,28,93,66,25,0.00,40.00,7,4,0,0.00
2013-12-13,71,54,43,55,45,-100,97,81,51,0.00,40.00,5,2,0,0.00
2013-12-14,80,66,55,70,61,-100,99,89,71,0.00,40.00,5,2,0,0.11
2013-12-15,69,63,55,69,61,52,99,91,77,0.00,40.00,8,3,0,0.87
2013-12-16,59,49,40,50,43,38,97,82,44,0.00,40.00,5,3,0,0.00
2013-12-17,67,50,39,50,44,39,99,83,52,0.00,40.00,5,2,0,0.00
2013-12-18,65,50,40,46,43,39,99,80,44,0.00,40.00,6,2,0,0.00
2013-12-19,74,53,38,59,49,37,99,87,54,0.00,40.00,4,1,0,0.00
2013-12-20,81,63,49,65,57,48,99,85,49,0.00,40.00,3,1,0,0.00
2013-12-21,84,69,58,71,62,-100,99,85,55,0.00,40.00,5,2,0,0.00
2013-12-22,84,73,66,73,69,66,99,89,64,0.00,40.00,4,2,0,0.00
2013-12-23,85,73,65,73,68,65,99,87,58,0.00,40.00,4,1,0,0.00
2013-12-24,70,58,44,70,50,36,98,76,39,0.00,40.00,8,3,0,0.00
2013-12-25,71,55,41,58,49,36,96,81,58,0.00,40.00,6,3,0,0.00
2013-12-26,69,58,54,63,56,53,99,93,79,0.00,40.00,6,4,0,0.00
2013-12-27,66,60,55,62,59,53,97,93,87,0.00,40.00,6,4,0,0.00
2013-12-28,76,66,62,70,63,-100,98,92,76,0.00,40.00,6,3,0,0.00
2013-12-29,75,70,63,72,69,63,99,96,87,0.00,40.00,5,2,0,0.22
2013-12-30,65,58,51,63,54,46,99,88,51,0.00,40.00,5,3,0,0.00